Content
SEND FEEDBACK

Daily
Averages
Monthly
Summary
United States of America

FARMINGDALE, SOUTH DAKOTA


Home > North America > United States > South Dakota
Elevation: 2990 feet     Latitude: 43 59N     Longitude: 102 54W

WEATHER
 
SELECT A DAY
Number of Records: 200,148;   Date Range: 1/1/95 - 7/7/14
 
SHARE

PRINT THIS DATA

[ ← Previous Day ]
WEATHER ALMANAC - SEPTEMBER 28, 2013
[ Next Day → ]
[ °C ]   °F
Weather ElementAverageHighLow
Temperature52.3 °F69.1 °F (3:52 pm)37 °F (4:52 am)
Dewpoint32.9 °F37.9 °F (1:52 am)28.9 °F (11:52 am)
Humidity54 %93 % (2:52 am)22 % (3:52 pm)
Barometer29.95 in29.99 in (7:52 am)29.90 in (3:52 pm)
Wind Speed6.6 mph16.1 mph (12:52 pm)
Wind Gust24.2 mph (11:52 am)
Weather ElementAverage
Visibility10 mi
Wind DirectionSW (221.7 °)

Weather ElementTotal
Precipitation---
Heating Degree Days12 (Base 65)
Growing Degree Days3.1 (Base 50)
Averaged from 23 records on September 28, 2013
WEATHER CONDITIONS BREAKOUT
WIND DIRECTION BREAKOUT
WEATHER BY HOUR - SEPTEMBER 28, 2013
[ °C ]   °F
Local TimeTemperatureDewpointHumidityBarometerVisibilityWind DirectionWind SpeedGust SpeedPrecipitationEventsConditions
1:52 AM41.0 °F37.9 °F89 %29.95 in10.0 miSW (220°)4.6 mphOvercast
2:52 AM39.9 °F37.9 °F93 %29.96 in10.0 miSW (220°)4.6 mphOvercast
3:52 AM37.9 °F35.1 °F89 %29.96 in10.0 miWest (270°)3.5 mphMostly Cloudy
4:52 AM37.0 °F34.0 °F89 %29.96 in10.0 miSW (230°)3.5 mphClear
5:52 AM37.0 °F32.0 °F82 %29.97 in10.0 miWSW (250°)3.5 mphClear
6:52 AM37.9 °F30.0 °F73 %29.98 in10.0 miSSW (200°)3.5 mphClear
7:52 AM41.0 °F34.0 °F76 %29.99 in10.0 miWNW (290°)9.2 mphClear
8:52 AM51.1 °F35.1 °F54 %29.97 in10.0 miWest (280°)8.1 mphClear
9:52 AM57.0 °F32.0 °F39 %29.96 in10.0 miWest (280°)12.7 mphClear
10:52 AM61.0 °F30.0 °F31 %29.95 in10.0 miWNW (290°)15.0 mphClear
11:52 AM63.0 °F28.9 °F28 %29.94 in10.0 miWNW (290°)9.2 mph24.2 mphClear
12:52 PM64.9 °F30.0 °F27 %29.93 in10.0 miWest (280°)16.1 mph24.2 mphClear
1:52 PM66.0 °F30.9 °F27 %29.91 in10.0 miWNW (290°)11.5 mph19.6 mphPartly Cloudy
2:52 PM68.0 °F30.0 °F24 %29.91 in10.0 miWest (280°)9.2 mph18.4 mphScattered Clouds
3:52 PM69.1 °F28.9 °F22 %29.90 in10.0 miWest (270°)11.5 mph21.9 mphScattered Clouds
4:52 PM69.1 °F28.9 °F22 %29.91 in10.0 miWest (260°)8.1 mphClear
5:52 PM66.0 °F32.0 °F28 %29.92 in10.0 miWest (280°)6.9 mphClear
6:52 PM55.9 °F34.0 °F44 %29.95 in10.0 miWest (270°)3.5 mphClear
7:52 PM50.0 °F34.0 °F54 %29.96 in10.0 miCalmClear
8:52 PM50.0 °F35.1 °F57 %29.96 in10.0 miWSW (240°)3.5 mphClear
9:52 PM46.9 °F35.1 °F63 %29.95 in10.0 miCalmClear
10:52 PM48.0 °F35.1 °F61 %29.93 in10.0 miCalmClear
11:52 PM44.1 °F35.1 °F71 %29.92 in10.0 miESE (110°)4.6 mphClear
Hourly data recorded from KRAP, located miles away from Farmingdale, South Dakota







STORIES FROM OUR PARTNERS